Back to catalog

SATCOM 3 DEB

AliveHEO
NORAD 29002·DEBRIS·🇺🇸 United States

Launched Dec 7, 1979 from Cape Canaveral Space Force Station

Loading…

Next Passes (next 24 hours)

TLE

FreshSource: Space-Track

Epoch: Sep 13, 2026, 22:15 UTC

1 29002U 79101E   26256.92717610 -.00000161  00000-0  00000+0 0  9993
2 29002   8.7027  86.3236 4821700  98.4943  46.5131  1.81877831137090

Track SATCOM 3 DEB in real time with AllMySat

Download on the App Store